Location: Culleoka
(33.1312°N, 96.4919°W)
Time: 08:52:51
(UTC+00:00)

CZ-4B R/B - Visible Passes

Search period start: 26 June 2022 00:00
Search period end: 06 July 2022 00:00
Orbit: 362 x 416 km, 97.6° (Epoch: 25 June)

Date Brightness Start Highest point End Pass type
(mag) Time Alt. Az. Time Alt. Az. Time Alt. Az.
26 Jun 1.1 02:59:44 10° N 03:02:37 73° WNW 03:04:47 16° SSW visible
27 Jun 3.1 02:07:50 10° ENE 02:09:04 12° E 02:10:18 10° ESE visible
27 Jun 4.0 03:38:37 10° NNW 03:40:29 16° WNW 03:42:21 10° WSW visible
28 Jun 1.1 02:44:21 10° NNE 02:47:10 52° E 02:49:08 17° S visible
29 Jun 3.0 03:22:30 10° NNW 03:25:02 28° WNW 03:27:26 11° SW visible
30 Jun 2.1 02:29:02 10° NE 02:31:31 26° E 02:33:18 15° SSE visible
01 Jul 1.5 03:06:33 10° N 03:09:24 57° WNW 03:11:31 16° SSW visible
02 Jul 2.9 02:14:00 10° ENE 02:15:41 14° E 02:17:18 10° SE visible
02 Jul 4.1 03:45:29 10° NW 03:47:02 14° WNW 03:48:35 10° WSW visible
03 Jul 0.9 02:50:41 10° NNE 02:53:33 65° ESE 02:55:26 19° S visible
04 Jul 3.3 03:28:46 10° NNW 03:31:11 24° WNW 03:33:31 10° SW visible
05 Jul 1.8 02:34:53 10° NNE 02:37:30 31° E 02:39:10 17° SSE visible
